Flag for U.S.A. Weather past 2 weeks in St. Petersburg, Florida, U.S.A.

Now
70 °F

Sunny.


Feels Like: 74 °F
Forecast: 67 / 80 °F
Wind: 18 mph from Northeast

Location: Whitted Airport

Current Time: Oct 23, 2014 at 9:50:15 AM

Latest Report: Oct 23, 2014 at 8:53 AM


Visibility: 10 mi

Pressure: 29.98 "Hg

Humidity: 71%

Dew point: 60 °F

Location of St. PetersburgLocation

Historic Weather in St. Petersburg — Graph

°F

St. Petersburg temperature yesterday

Maximum temperature yesterday: 83 °F (at 2:53 PM)
Minimum temperature yesterday: 73 °F (at 5:53 AM)
Average temperature yesterday: 77 °F

Past Weeks' High & Low Weather Summary

 TemperatureHumidityPressure
High90 °F (Oct 11, 3:53 PM)97% (Oct 14, 6:04 PM)30.13 "Hg (Oct 14, 6:04 PM)
Low69 °F (Oct 18, 4:53 AM)42% (Oct 8, 2:53 PM)29.89 "Hg (Oct 21, 3:53 PM)
Average78 °F69%29.98 "Hg
* Reported Oct 8 7:53 AM — Oct 23 7:53 AM, St. Petersburg, Weather by CustomWeather, © 2014

Note: Actual official high and low records may vary slightly from our data, if they occured in-between our weather recording intervals... More about our weather records

Advertising

St. Petersburg weather history for previous 24 hours

 ConditionsComfort  
Time TempWeatherWind HumidityBarometerVisibility
7:53 AM
Oct 23
69 °FPassing clouds.17 mph76%29.96 "Hg10 mi
6:53 AM69 °FClear.17 mph73%29.96 "Hg10 mi
5:53 AM70 °FPassing clouds.18 mph68%29.95 "Hg10 mi
4:53 AM70 °FClear.21 mph71%29.94 "Hg10 mi
3:53 AM70 °FClear.22 mph73%29.95 "Hg10 mi
2:53 AM71 °FClear.18 mph76%29.96 "Hg10 mi
1:53 AM72 °FClear.18 mph76%29.96 "Hg10 mi
12:53 AM73 °FClear.17 mph76%29.96 "Hg10 mi
11:53 PM
Oct 22
75 °FClear.18 mph71%29.97 "Hg10 mi
10:53 PM77 °FClear.18 mph66%29.96 "Hg10 mi
9:53 PM75 °FClear.8 mph71%29.95 "Hg10 mi
8:53 PM76 °FClear.9 mph67%29.95 "Hg10 mi
7:53 PM77 °FSunny.8 mph64%29.93 "Hg10 mi
6:53 PM78 °FSunny.8 mph64%29.92 "Hg10 mi
5:53 PM82 °FSunny.No wind51%29.90 "Hg10 mi
4:53 PM82 °FSunny.3 mph49%29.90 "Hg10 mi
3:53 PM83 °FSunny.3 mph51%29.90 "Hg10 mi
2:53 PM83 °FSunny.6 mph55%29.92 "Hg10 mi
1:53 PM82 °FSunny.7 mph55%29.94 "Hg10 mi
12:53 PM81 °FSunny.7 mph58%29.97 "Hg10 mi
11:53 AM79 °FSunny.9 mph62%29.98 "Hg10 mi
10:53 AM77 °FSunny.9 mph64%29.99 "Hg10 mi
9:53 AM76 °FSunny.14 mph67%29.99 "Hg10 mi
Weather by CustomWeather, © 2014

See weather overviewHow to use our weather pages